This demonstration page uses our WeatherBlox Daily Observations layout. Learn more.

Left ArrowRight Arrow

52.15, 13.63333

Hourly Observations for April 15, 2021

Temp ( °F °C ) Dew Point ( °F °C ) Humidity (%) Winds ( mph kmh ) Pressure ( in mb ) Visibility ( mi km ) Precip ( " mm )
12:20 am 00:20 Mostly Clear 39 4 25 -4 56 56 NNE 8 13 30.33 1027 7 11.26538 N/A
12:50 am 00:50 Mostly Clear 37 3 27 -3 65 65 N 7 11 30.33 1027 7 11.26538 N/A
1:20 am 01:20 Mostly Clear 37 3 27 -3 65 65 N 6 9 30.33 1027 7 11.26538 N/A
1:50 am 01:50 Mostly Clear 36 2 27 -3 70 70 N 6 9 30.34 1027 7 11.26538 N/A
2:20 am 02:20 Mostly Clear 36 2 27 -3 70 70 N 6 9 30.34 1027 7 11.26538 N/A
2:50 am 02:50 Mostly Clear 36 2 27 -3 70 70 NNW 6 9 30.34 1027 7 11.26538 N/A
3:20 am 03:20 Mostly Clear 36 2 27 -3 70 70 NNW 6 9 30.34 1027 7 11.26538 N/A
3:50 am 03:50 Mostly Clear 36 2 27 -3 70 70 NNW 6 9 30.34 1027 7 11.26538 N/A
4:20 am 04:20 Mostly Clear 36 2 28 -2 75 75 NNW 7 11 30.34 1027 7 11.26538 N/A
4:50 am 04:50 Mostly Clear 36 2 28 -2 75 75 NNW 6 9 30.34 1027 7 11.26538 N/A
5:20 am 05:20 Mostly Clear 36 2 28 -2 75 75 NNW 7 11 30.34 1027 7 11.26538 N/A
5:50 am 05:50 Mostly Clear 34 1 28 -2 81 81 NNW 8 13 30.34 1027 7 11.26538 N/A
6:20 am 06:20 Mostly Sunny 36 2 28 -2 75 75 NNW 8 13 30.34 1027 7 11.26538 N/A
6:50 am 06:50 Mostly Sunny 36 2 30 -1 81 81 NNW 8 13 30.34 1027 7 11.26538 N/A
7:20 am 07:20 Mostly Sunny 36 2 30 -1 81 81 NNW 8 13 30.34 1027 7 11.26538 N/A
7:50 am 07:50 Mostly Sunny 37 3 30 -1 75 75 NNW 7 11 30.33 1027 7 11.26538 N/A
8:20 am 08:20 Mostly Sunny 37 3 30 -1 75 75 NNW 9 15 30.33 1027 7 11.26538 N/A
8:50 am 08:50 Mostly Sunny 39 4 30 -1 70 70 N 12 19 30.33 1027 7 11.26538 N/A
9:20 am 09:20 Mostly Sunny 39 4 30 -1 70 70 N 10 17 30.33 1027 7 11.26538 N/A
9:50 am 09:50 Mostly Sunny 41 5 30 -1 66 66 N 12 19 30.33 1027 30 48.2802 N/A
10:20 am 10:20 Mostly Sunny 43 6 28 -2 57 57 NNE 14 22 30.33 1027 30 48.2802 N/A
10:50 am 10:50 Partly Cloudy 43 6 28 -2 57 57 N 15 24 30.33 1027 30 48.2802 N/A
11:20 am 11:20 Partly Cloudy 43 6 25 -4 49 49 NNE 17 28 30.33 1027 30 48.2802 N/A
11:50 am 11:50 Partly Cloudy 45 7 25 -4 46 46 NNE 15 24 30.33 1027 30 48.2802 N/A
12:20 pm 12:20 Mostly Cloudy 45 7 23 -5 42 42 N 18 30 30.33 1027 30 48.2802 N/A
12:50 pm 12:50 Mostly Cloudy 43 6 23 -5 46 46 N 17 28 30.33 1027 30 48.2802 N/A
1:20 pm 13:20 Mostly Cloudy 45 7 25 -4 46 46 N 14 22 30.33 1027 30 48.2802 N/A
1:50 pm 13:50 Mostly Sunny 43 6 25 -4 49 49 N 20 31 30.33 1027 N/A N/A
2:20 pm 14:20 Partly Cloudy 43 6 27 -3 53 53 N 16 26 30.33 1027 30 48.2802 N/A
2:50 pm 14:50 Partly Cloudy 45 7 25 -4 46 46 N 14 22 30.3 1026 30 48.2802 N/A
3:20 pm 15:20 Mostly Sunny 45 7 23 -5 42 42 N 16 26 30.3 1026 30 48.2802 N/A
3:50 pm 15:50 Mostly Sunny 45 7 23 -5 42 42 N 14 22 30.3 1026 7 11.26538 N/A
4:20 pm 16:20 Mostly Sunny 45 7 21 -6 39 39 NNE 15 24 30.3 1026 7 11.26538 N/A
4:50 pm 16:50 Mostly Sunny 45 7 21 -6 39 39 N 17 28 30.3 1026 7 11.26538 N/A
5:20 pm 17:20 Mostly Sunny 45 7 23 -5 42 42 N 21 33 30.3 1026 7 11.26538 N/A
5:50 pm 17:50 Mostly Sunny 45 7 23 -5 42 42 N 16 26 30.27 1025 7 11.26538 N/A
6:20 pm 18:20 Mostly Sunny 45 7 23 -5 42 42 N 21 33 30.3 1026 7 11.26538 N/A
6:50 pm 18:50 Cloudy with Light Rain 41 5 27 -3 57 57 NE 20 31 30.3 1026 30 48.2802 N/A
7:20 pm 19:20 Cloudy with Light Rain 39 4 28 -2 65 65 N 16 26 30.3 1026 30 48.2802 N/A
7:50 pm 19:50 Cloudy with Light Rain 37 3 30 -1 75 75 NNE 16 26 30.31 1026 30 48.2802 N/A
8:20 pm 20:20 Cloudy with Light Wintry Mix 36 2 32 0 87 87 N 14 22 30.31 1026 30 48.2802 N/A
8:50 pm 20:50 Mostly Cloudy with Light Wintry Mix 36 2 32 0 87 87 NNW 14 22 30.31 1026 30 48.2802 N/A
9:20 pm 21:20 Mostly Cloudy 36 2 32 0 87 87 NNW 13 20 30.31 1026 30 48.2802 N/A
9:50 pm 21:50 Mostly Cloudy 36 2 32 0 87 87 NNW 13 20 30.31 1026 30 48.2802 N/A
10:20 pm 22:20 Mostly Cloudy 36 2 34 1 93 93 NNW 13 20 30.31 1026 30 48.2802 N/A
10:50 pm 22:50 Mostly Cloudy with Light Rain 37 3 34 1 87 87 NNW 17 28 30.28 1025 30 48.2802 N/A
11:20 pm 23:20 Partly Cloudy 37 3 34 1 87 87 NNW 13 20 30.28 1025 30 48.2802 N/A
11:50 pm 23:50 Partly Cloudy 37 3 34 1 87 87 N 10 17 30.28 1025 30 48.2802 N/A

Powered by AerisWeather